Location: Newark
(41.0000°N, 28.9500°W)
Time: 16:18:41
(UTC+00:00)

X-37B - Visible Passes

Search period start: 05 March 2021 00:00
Search period end: 15 March 2021 00:00
Orbit: 383 x 391 km, 45.0° (Epoch: 27 February)

Date Brightness Start Highest point End Pass type
(mag) Time Alt. Az. Time Alt. Az. Time Alt. Az.
09 Mar 2.9 21:07:48 10° S 21:08:35 12° SSE 21:08:35 12° SSE visible
10 Mar 2.4 21:44:18 10° SW 21:45:52 24° SSW 21:45:52 24° SSW visible
11 Mar 2.0 20:46:27 10° SSW 20:49:07 24° SE 20:50:42 17° ESE visible
11 Mar 3.6 22:22:22 10° WSW 22:23:01 15° W 22:23:01 15° W visible
12 Mar 0.5 21:23:59 10° WSW 21:27:11 76° SSE 21:27:42 58° E visible
13 Mar 1.2 20:25:49 10° SW 20:28:52 43° SSE 20:31:57 10° ENE visible
13 Mar 2.2 22:02:24 10° W 22:04:35 35° WNW 22:04:35 35° WNW visible
14 Mar 0.8 21:03:53 10° WSW 21:07:05 68° NNW 21:09:03 21° ENE visible
14 Mar 4.1 22:40:59 10° WNW 22:41:21 12° WNW 22:41:21 12° WNW visible
